Regional Weather Roundup
Issued by NWS

Home | Current Version | Previous Version | Text Only | Print | Product List | Glossary On
Versions: 1 2 3 4 5 6 7 8 9 10 11 12 13 14 15 16 17 18 19 20 21 22 23 24 25 26 27 28 29 30 31 32 33 34 35 36 37 38 39 40 41 42 43 44 45 46 47 48 49 50
000
ASUS44 KLIX 220913
RWRLA
LOUISIANA WEATHER ROUNDUP
NATIONAL WEATHER SERVICE NEW ORLEANS LA
300 AM CST SUN JAN 22 2017

NOTE: "FAIR" INDICATES FEW OR NO CLOUDS BELOW 12,000 FEET WITH NO
      SIGNIFICANT WEATHER AND/OR OBSTRUCTIONS TO VISIBILITY.
      SKY/WX - SKY CONDITION AND SIGNIFICANT WEATHER.
      TMP - AIR TEMPERATURE.    DP   - DEWPOINT TEMPERATURE.
      RH  - RELATIVE HUMIDITY.  PRES - PRESSURE.
      HX  - HEAT INDEX.         WCI  - WIND CHILL INDEX.

*  THESE STATIONS ARE NOT NWS OR FAA STATIONS AND ARE NOT UNDER
   NWS QUALITY CONTROL.

LAZ040-048-061>063-065-066-069-221000-
SOUTHEAST LOUISIANA

CITY           SKY/WX    TMP DP  RH WIND       PRES   REMARKS
N.O. AUDUBON   NOT AVBL
N.O. INTL ARPT MOCLDY    70  68  93 SW6       29.51S
N.O. LAKEFRONT MOCLDY    68  67  96 SW13      29.52R
N.O. DOWNTOWN*   N/A     70  68  93 S6        29.53S FOG
RESERVE*       PTSUNNY   70  68  93 SW6       29.51F FOG
SLIDELL        CLOUDY    69  68  96 VRB3      29.52R FOG
BATON ROUGE    MOCLDY    67  65  93 CALM      29.49F FOG
BOOTHVILLE     CLOUDY    69  69 100 SW12      29.52F FOG
BELLE CHASSE   MOCLDY    69  68  96 SW9       29.52S
BOGALUSA*      FAIR      69  65  88 SW5       29.54R
GALLIANO*      CLOUDY    72  68  89 SW10      29.52R FOG
NEW ROADS*     FAIR      65  63  94 W7        29.50F FOG
GONZALES*      PTSUNNY   68  66  94 S3        29.49F FOG
HAMMOND*       CLOUDY    68  64  88 W5        29.51F FOG
HOUMA*         MOCLDY    70  69  96 SW5       29.53S FOG
PORT FOURCHON* CLOUDY    72  70  94 SW8       29.53R FOG

$$

LAZ041-044-053-054-221000-
SOUTHWEST LOUISIANA

CITY           SKY/WX    TMP DP  RH WIND       PRES   REMARKS
LAKE CHARLES   LGT RAIN  60  54  80 NW9       29.58R
LAFAYETTE      CLEAR     68  65  90 W13       29.50F FOG
PATTERSON      MOCLDY    68  68 100 SW9       29.53R FOG
SALT POINT     NOT AVBL
NEW IBERIA     MOCLDY    68  64  87 W10       29.51S FOG
CHENAULT AIRPK LGT RAIN  58  55  87 NW14G22   29.56R

$$

LAZ027-028-221000-
CENTRAL LOUISIANA

CITY           SKY/WX    TMP DP  RH WIND       PRES   REMARKS
FORT POLK      LGT RAIN  57  55  92 W5        29.55F
ALEXANDRIA INT RAIN      58  54  86 W10       29.56R FOG
ALEXANDRIA     LGT RAIN  58  55  90 W9        29.55R

$$

LAZ001-002-221000-
NORTHWEST LOUISIANA

CITY           SKY/WX    TMP DP  RH WIND       PRES   REMARKS
SHREVEPORT     CLOUDY    59  50  72 SW10      29.43R
BARKSDALE AFB  MOCLDY    57  51  78 S9        29.42F
DTN SHREVEPORT CLOUDY    60  48  64 S12       29.41F

$$

LAZ014-016-221000-
NORTHEAST LOUISIANA

CITY           SKY/WX    TMP DP  RH WIND       PRES   REMARKS
MONROE         CLOUDY    62  57  83 W7        29.48F
TALLULAH       CLOUDY    63  62  97 SW6       29.49R FOG

$$




USA.gov is the U.S. government's official web portal to all federal, state and local government web resources and services.